Location: Ku?niki
(51.4449°N, 17.8974°E)
Time: 08:53:23
(UTC+00:00)

DX 1 - Visible Passes

Search period start: 25 June 2022 00:00
Search period end: 05 July 2022 00:00
Orbit: 618 x 628 km, 98.4° (Epoch: 24 June)

Date Brightness Start Highest point End Pass type
(mag) Time Alt. Az. Time Alt. Az. Time Alt. Az.
25 Jun ? 20:46:04 10° N 20:50:18 47° WNW 20:54:29 10° SW visible
26 Jun ? 21:04:31 10° N 21:08:28 33° WNW 21:12:24 10° SW visible
27 Jun ? 21:23:05 10° N 21:26:36 24° WNW 21:30:07 10° WSW visible
28 Jun ? 20:04:39 10° NNE 20:09:03 72° ESE 20:13:25 10° S visible
28 Jun ? 21:41:45 10° NNW 21:44:41 18° WNW 21:47:37 10° W visible
29 Jun ? 20:22:55 10° NNE 20:27:19 78° WNW 20:31:41 10° SSW visible
29 Jun ? 22:00:41 10° NNW 22:02:44 13° NW 22:04:47 10° W visible
30 Jun ? 20:41:16 10° N 20:45:33 53° WNW 20:49:49 10° SW visible
01 Jul ? 20:59:41 10° N 21:03:45 37° WNW 21:07:46 10° SW visible
02 Jul ? 21:18:12 10° N 21:21:53 27° WNW 21:25:32 10° WSW visible
03 Jul ? 19:59:53 10° NNE 20:04:15 63° ESE 20:08:35 10° S visible
03 Jul ? 21:36:49 10° NNW 21:39:58 20° WNW 21:43:07 10° WSW visible
04 Jul ? 20:18:07 10° NNE 20:22:32 88° WNW 20:26:54 10° SSW visible
04 Jul ? 21:55:37 10° NNW 21:58:01 15° NW 22:00:24 10° W visible
